Regional Weather Roundup
Issued by NWS Charleston, WV

Home | Current Version | Previous Version | Graphics & Text | Print | Product List | Glossary On
Versions: 1 2 3 4 5 6 7 8 9 10 11 12 13 14 15 16 17 18 19 20 21 22 23 24 25 26 27 28 29 30 31 32 33 34 35 36 37 38 39 40 41 42 43 44 45 46 47 48 49 50
000
ASUS41 KRLX 070710
RWRRLX
West Virginia Regional Weather Roundup
National Weather Service Charleston WV
300 AM EDT TUE JUL 07 2015

Note: "fair" indicates few or no clouds below 12,000 feet with no
significant weather and/or obstructions to visibility.

WVZ003-070800-
Northern Panhandle of West Virginia

CITY           SKY/WX    TMP DP  RH WIND       PRES   REMARKS
WHEELING       CLOUDY    69  67  93 S5        30.03F FOG
$$

WVZ009-070800-
Northwest West Virginia

CITY           SKY/WX    TMP DP  RH WIND       PRES   REMARKS
PARKERSBURG    CLEAR     69  67  93 S5        30.06F
$$

WVZ006-070800-
Western West Virginia

CITY           SKY/WX    TMP DP  RH WIND       PRES   REMARKS
HUNTINGTON     CLEAR     68  67  96 S5        30.04F FOG
$$

WVZ015-070800-
West Central West Virginia

CITY           SKY/WX    TMP DP  RH WIND       PRES   REMARKS
CHARLESTON     PTCLDY    68  65  90 S5        30.06F
$$

WVZ022-031-070800-
North Central West Virginia

CITY           SKY/WX    TMP DP  RH WIND       PRES   REMARKS
CLARKSBURG     MOCLDY    68  67  96 S3        30.06F
MORGANTOWN     PTCLDY    71  65  81 S5        30.07S
$$

WVZ025-035-042-045-070800-
Southern West Virginia

CITY           SKY/WX    TMP DP  RH WIND       PRES   REMARKS
BECKLEY        CLEAR     64  61  90 SW3       30.16F
LOGAN            N/A     66  66 100 CALM      30.07F FOG
BLUEFIELD      PTCLDY    65  60  84 W5        30.19F
LEWISBURG      CLEAR     63  61  93 CALM      30.15F FOG
$$

WVZ047-070800-
Northern Mountains of West Virginia

CITY           SKY/WX    TMP DP  RH WIND       PRES   REMARKS
ELKINS         MOCLDY    67  63  87 S3        30.12F
$$

WVZ052-070800-
Eastern Panhandle of West Virginia

CITY           SKY/WX    TMP DP  RH WIND       PRES   REMARKS
MARTINSBURG    MOCLDY    70  68  93 CALM      30.04R
PETERSBURG     FOG       68  67  95 CALM      30.07S VSB 3/4
$$


USA.gov is the U.S. government's official web portal to all federal, state and local government web resources and services.